FALCON 9 R/B

Satellite information

Favourite Embed

Satellite Type and Status

ROCKET BODYIN ORBIT

Key statistics

Satellite FALCON 9 R/B at a glance.

Uptime

5323

Days in orbit

Revolutions

≈ 7.3

Per day

Orbit

MEO

Medium Earth Orbit

Inclination

34.5

Latest

Satellite identification and parameters

Extended collection of information and parameters for FALCON 9 R/B.

Object identification

Identified? True

Debris? False

Object name: FALCON 9 R/B

International designator: 2010-066K

Object number (NORAD): 37253

Object ID (CCSDS): 37253

Country: UNITED STATES OF AMERICA (US)

Current information (Y/N): Y

RCS size: LARGE

Orbital parameters

Period: 196.844 minutes

Inclination: 34.5203 deg

SMA: 11209.201 km

Apoapsis: 9380.897 km

Periapsis: 281.234 km

RAAN: 161.5474 deg

Eccentricy: 0.4059015

Argument of periapsis: 271.5652 deg

Mean anomaly: 43.6627 deg

Mean motion: 7.31544565 rev/day

Mean motion (dot): 0.00009166 rev/day2

B* drag term: 0.00066626 1/REarth

Two-line elements (TLE)

Creation date: July 4, 2025, 3:20 a.m.

Reference frame: TEME

Reference center: EARTH

Epoch: July 3, 2025, 5:05 p.m. UTC

TLE line 0: 0 FALCON 9 R/B

TLE line 1: 1 37253U 10066K 25184.71246801 .00009166 00000-0 66626-3 0 9993

TLE line 2: 2 37253 34.5203 161.5474 4059015 271.5652 43.6627 7.31544565367003

Live tracking on map

Real-time ground track for satellite FALCON 9 R/B.

In-orbit conjunctions

There are no conjunctions computed for FALCON 9 R/B, at the moment. Check back to stay up to date, as we update our databases every day.

Go to all conjunctions

Associated space launch

SpaceX COTS Demo Flight 1 in 2010 was the unmanned first spaceflight of the SpaceX Dragon spacecraft, the Dragon C1, which orbited the Earth, and the second overall flight of the SpaceX Falcon 9. It was also the first demonstration flight for NASA's Commercial Orbital Transportation Services (COTS) program for which SpaceX was selected. The primary mission objectives were to test the orbital maneuvering and reentry of the Dragon capsule.

FALCON 9 R/B was lifted into orbit during the mission ‘Falcon 9 v1.0 | SpaceX COTS Demo Flight 1’, on board a Falcon 9 space rocket.

The launch took place on Dec. 8, 2010, 3:43 p.m. from Space Launch Complex 40.

For more information about the launch, click the button.

Launch to space Falcon 9 v1.0 | SpaceX COTS Demo Flight 1
Falcon 9 v1.0 | SpaceX COTS Demo Flight 1

Agency: N/A

Status: Launch Successful

Launch date: Dec. 8, 2010, 3:43 p.m. UTC

Rocket: Falcon 9

Launch pad: Space Launch Complex 40

Location: Cape Canaveral SFS, FL, USA

...

Latest news about this satellite

There are no fresh news available about this satellite. Check back as we update our databases every day.


Newsletter sign-up

Weekly statistics, charts and insights to help you stay on top of the space industry.